Flag for Belgium Weather past 2 weeks in Antwerp, Belgium

Now
70 °F

Passing clouds.


Feels Like: 70 °F
Forecast: 57 / 72 °F
Wind: 13 mph from Northwest

Location: Antwerp / Deurne

Current Time: Jul 29, 2014 at 9:57:54 PM

Latest Report: Jul 29, 2014 at 9:20 PM


Visibility: N/A

Pressure: 29.89 "Hg

Humidity: 78%

Dew point: 63 °F

Location of AntwerpLocation

Historic Weather in Antwerp — Graph

°F

Antwerp temperature yesterday

Maximum temperature yesterday: 70 °F (at 5:20 PM)
Minimum temperature yesterday: 61 °F (at 10:50 AM)
Average temperature yesterday: 66 °F

Past Weeks' High & Low Weather Summary

 TemperatureHumidityPressure
High91 °F (Jul 19, 1:50 PM)100% (Jul 16, 4:20 AM)30.18 "Hg (Jul 16, 4:20 AM)
Low55 °F (Jul 16, 4:20 AM)30% (Jul 19, 2:50 PM)29.77 "Hg (Jul 19, 6:20 PM)
Average71 °F71%29.99 "Hg
* Reported Jul 14 8:20 PM — Jul 29 8:50 PM, Antwerp, Weather by CustomWeather, © 2014

Note: Actual official high and low records may vary slightly from our data, if they occured in-between our weather recording intervals... More about our weather records

Advertising

Antwerp weather history for previous 24 hours

 ConditionsComfort  
Time TempWeatherWind HumidityBarometerVisibility
8:50 PM
Jul 29
72 °FPassing clouds.14 mph73%29.89 "HgN/A
8:20 PM73 °FPassing clouds.10 mph74%29.86 "HgN/A
7:50 PM73 °FPassing clouds.13 mph74%29.86 "HgN/A
7:20 PM75 °FPassing clouds.13 mph74%29.86 "HgN/A
6:50 PM75 °FScattered clouds.13 mph74%29.86 "HgN/A
6:20 PM77 °FScattered clouds.14 mph74%29.86 "HgN/A
5:50 PM77 °FScattered clouds.10 mph69%29.86 "HgN/A
5:20 PM75 °FScattered clouds.13 mph74%29.83 "HgN/A
4:50 PM75 °FPartly sunny.13 mph74%29.83 "HgN/A
4:20 PM75 °FScattered clouds.14 mph74%29.83 "HgN/A
3:50 PM79 °FBroken clouds.13 mph65%29.83 "HgN/A
3:20 PM77 °FPassing clouds.10 mph74%29.86 "HgN/A
2:50 PM77 °FPassing clouds.10 mph74%29.86 "HgN/A
2:20 PM75 °FScattered clouds.10 mph74%29.86 "HgN/A
1:50 PM75 °FPassing clouds.8 mph74%29.89 "HgN/A
1:20 PM75 °FPartly sunny.9 mph74%29.89 "HgN/A
12:50 PM73 °FPartly sunny.9 mph78%29.86 "HgN/A
12:20 PM75 °FScattered clouds.8 mph74%29.86 "HgN/A
11:50 AM72 °FScattered clouds.6 mph83%29.89 "HgN/A
11:20 AM70 °FPartly sunny.6 mph83%29.89 "HgN/A
10:50 AM68 °FPartly sunny.6 mph88%29.89 "Hg6 mi
10:20 AM68 °FPartly sunny.8 mph88%29.89 "Hg5 mi
9:50 AM68 °FPartly sunny.8 mph88%29.89 "Hg5 mi
9:20 AM68 °FPartly sunny.7 mph88%29.89 "Hg4 mi
8:50 AM68 °FPartly sunny.7 mph88%29.89 "Hg5 mi
8:20 AM66 °FFog.6 mph94%29.89 "Hg3 mi
7:50 AM66 °FFog.5 mph88%29.89 "Hg3 mi
7:20 AM66 °FFog.5 mph88%29.89 "Hg2 mi
6:50 AM64 °FFog.3 mph88%29.89 "Hg2 mi
6:20 AM64 °FFog.2 mph88%29.89 "Hg3 mi
5:50 AM63 °FFog.5 mph94%29.89 "Hg3 mi
5:20 AM64 °FPassing clouds.3 mph88%29.89 "Hg3 mi
4:50 AM64 °FMild.5 mph94%29.89 "Hg4 mi
4:20 AM64 °FMild.7 mph88%29.89 "Hg3 mi
3:50 AM64 °FMild.7 mph88%29.89 "Hg4 mi
3:20 AM64 °FPassing clouds.5 mph88%29.89 "Hg4 mi
2:50 AM64 °FPassing clouds.5 mph88%29.89 "Hg4 mi
2:20 AM64 °FMild.5 mph88%29.89 "Hg4 mi
1:50 AM64 °FPassing clouds.5 mph88%29.89 "Hg4 mi
1:20 AM64 °FOvercast.6 mph88%29.89 "Hg5 mi
12:50 AM64 °FPassing clouds.6 mph88%29.89 "HgN/A
12:20 AM64 °FPassing clouds.7 mph88%29.89 "HgN/A
11:50 PM
Jul 28
66 °FOvercast.7 mph83%29.92 "HgN/A
11:20 PM66 °FPassing clouds.8 mph83%29.92 "HgN/A
10:50 PM66 °FPassing clouds.6 mph83%29.89 "HgN/A
10:20 PM68 °FPartly sunny.6 mph78%29.89 "HgN/A
9:50 PM68 °FPartly sunny.6 mph78%29.89 "HgN/A
9:20 PM68 °FScattered clouds.5 mph73%29.89 "HgN/A
Weather by CustomWeather, © 2014

See weather overviewHow to use our weather pages